QPF
0.01 0.01 0.00 0.00 0.01 0.01 0.01 0.01 0.01 0.00 0.00 0.00 0.00 0.00 0.00 0.00 0.00 0.00 0.00 0.00 0.00 0.00 0.00 0.00 0.00 0.00 0.00 0.01 0.01 0.00 0.00 0.00 0.00 0.00 0.01 0.01 0.00 0.00 0.00 0.01 0.01 0.01 0.01 0.01
0.01 0.01 0.01 0.00 0.00 0.01 0.01 0.01 0.01 0.00 0.00 0.00 0.00 0.00 0.00 0.00 0.00 0.00 0.00 0.00 0.00 0.00 0.00 0.00 0.00 0.01 0.01 0.01 0.01 0.00 0.00 0.00 0.00 0.00 0.00 0.01 0.00 0.00 0.01 0.01 0.01 0.01 0.01 0.01
0.01 0.01 0.01 0.00 0.00 0.00 0.01 0.01 0.00 0.00 0.00 0.00 0.00 0.00 0.00 0.00 0.00 0.00 0.00 0.00 0.00 0.00 0.00 0.00 0.00 0.00 0.01 0.01 0.01 0.00 0.00 0.00 0.00 0.00 0.00 0.00 0.00 0.00 0.01 0.01 0.01 0.01 0.01 0.02
0.01 0.01 0.01 0.00 0.00 0.00 0.01 0.00 0.00 0.00 0.00 0.00 0.00 0.00 0.00 0.00 0.00 0.00 0.00 0.00 0.00 0.00 0.00 0.00 0.00 0.00 0.00 0.00 0.00 0.00 0.00 0.00 0.00 0.00 0.00 0.00 0.01 0.01 0.01 0.01 0.01 0.01 0.01 0.01
0.00 0.00 0.00 0.00 0.00 0.00 0.00 0.00 0.00 0.00 0.00 0.00 0.00 0.00 0.00 0.00 0.00 0.00 0.00 0.00 0.00 0.00 0.00 0.00 0.00 0.00 0.00 0.00 0.00 0.00 0.00 0.00 0.00 0.00 0.00 0.00 0.01 0.01 0.01 0.01 0.01 0.01 0.01 0.01
0.00 0.00 0.00 0.00 0.00 0.00 0.00 0.00 0.00 0.00 0.00 0.00 0.00 0.00 0.00 0.00 0.00 0.00 0.00 0.00 0.00 0.00 0.00 0.00 0.00 0.00 0.00 0.00 0.01 0.01 0.00 0.00 0.00 0.00 0.00 0.01 0.01 0.02 0.02 0.02 0.01 0.01 0.01 0.01
0.00 0.00 0.00 0.00 0.00 0.00 0.00 0.00 0.00 0.00 0.00 0.00 0.00 0.00 0.00 0.00 0.00 0.00 0.00 0.00 0.00 0.00 0.00 0.00 0.00 0.00 0.00 0.00 0.00 0.00 0.00 0.00 0.00 0.00 0.01 0.01 0.01 0.01 0.02 0.02 0.02 0.01 0.01 0.01
0.00 0.00 0.00 0.00 0.00 0.00 0.00 0.00 0.00 0.00 0.00 0.00 0.00 0.00 0.00 0.00 0.00 0.00 0.00 0.00 0.00 0.00 0.00 0.00 0.00 0.00 0.00 0.00 0.00 0.00 0.00 0.01 0.01 0.01 0.01 0.01 0.01 0.02 0.02 0.02 0.03 0.02 0.02 0.01
0.00 0.00 0.00 0.00 0.00 0.00 0.00 0.00 0.00 0.00 0.00 0.00 0.00 0.00 0.00 0.00 0.00 0.00 0.00 0.00 0.00 0.00 0.00 0.00 0.00 0.00 0.00 0.00 0.00 0.00 0.01 0.01 0.01 0.01 0.01 0.01 0.01 0.01 0.02 0.02 0.03 0.02 0.01 0.01
0.00 0.00 0.00 0.00 0.00 0.00 0.00 0.00 0.00 0.00 0.01 0.01 0.01 0.00 0.01 0.01 0.01 0.01 0.01 0.01 0.01 0.01 0.00 0.00 0.00 0.00 0.00 0.00 0.00 0.00 0.01 0.01 0.01 0.01 0.01 0.01 0.01 0.02 0.02 0.02 0.02 0.02 0.02 0.01
0.00 0.01 0.00 0.00 0.00 0.00 0.00 0.00 0.00 0.00 0.00 0.01 0.01 0.01 0.01 0.01 0.01 0.01 0.01 0.01 0.01 0.01 0.01 0.01 0.01 0.00 0.01 0.00 0.00 0.00 0.01 0.01 0.01 0.01 0.01 0.01 0.01 0.01 0.01 0.01 0.01 0.02 0.02 0.01
0.00 0.00 0.01 0.00 0.00 0.00 0.00 0.00 0.00 0.00 0.00 0.00 0.00 0.01 0.01 0.00 0.00 0.00 0.00 0.00 0.00 0.00 0.00 0.01 0.01 0.01 0.01 0.01 0.00 0.00 0.01 0.01 0.01 0.01 0.01 0.01 0.01 0.01 0.01 0.01 0.01 0.01 0.02 0.02
0.00 0.00 0.00 0.00 0.00 0.00 0.00 0.00 0.00 0.00 0.00 0.00 0.00 0.00 0.00 0.00 0.00 0.00 0.00 0.00 0.00 0.00 0.00 0.00 0.00 0.01 0.01 0.01 0.01 0.01 0.01 0.01 0.01 0.01 0.02 0.02 0.02 0.02 0.02 0.02 0.02 0.02 0.01 0.02
0.00 0.00 0.00 0.00 0.00 0.00 0.00 0.00 0.00 0.00 0.00 0.00 0.00 0.00 0.00 0.00 0.00 0.00 0.00 0.00 0.00 0.00 0.00 0.00 0.00 0.01 0.01 0.01 0.01 0.01 0.01 0.01 0.01 0.01 0.01 0.02 0.02 0.02 0.01 0.01 0.02 0.02 0.02 0.01
0.00 0.00 0.00 0.00 0.00 0.00 0.00 0.00 0.00 0.00 0.00 0.00 0.00 0.00 0.00 0.00 0.00 0.00 0.00 0.00 0.00 0.00 0.01 0.00 0.01 0.01 0.01 0.01 0.01 0.01 0.01 0.01 0.01 0.01 0.01 0.01 0.01 0.01 0.02 0.02 0.01 0.01 0.02 0.02
0.00 0.00 0.00 0.00 0.00 0.00 0.00 0.00 0.00 0.00 0.00 0.00 0.00 0.00 0.00 0.00 0.00 0.00 0.00 0.00 0.00 0.00 0.00 0.00 0.00 0.01 0.01 0.01 0.01 0.01 0.01 0.01 0.01 0.01 0.01 0.01 0.01 0.01 0.01 0.01 0.01 0.02 0.02 0.03
0.00 0.00 0.00 0.00 0.00 0.00 0.00 0.00 0.00 0.00 0.00 0.00 0.00 0.00 0.00 0.00 0.00 0.00 0.00 0.00 0.00 0.00 0.00 0.00 0.00 0.00 0.01 0.01 0.01 0.01 0.01 0.01 0.01 0.01 0.01 0.01 0.01 0.01 0.01 0.01 0.02 0.02 0.02 0.02
0.00 0.00 0.00 0.00 0.00 0.00 0.00 0.00 0.00 0.00 0.00 0.00 0.00 0.00 0.00 0.00 0.00 0.00 0.00 0.00 0.00 0.00 0.00 0.00 0.00 0.00 0.00 0.00 0.01 0.01 0.01 0.01 0.01 0.01 0.01 0.01 0.01 0.01 0.01 0.02 0.02 0.02 0.01 0.02
0.00 0.00 0.00 0.00 0.00 0.00 0.00 0.00 0.00 0.00 0.00 0.00 0.00 0.00 0.00 0.00 0.00 0.00 0.00 0.00 0.00 0.00 0.00 0.00 0.00 0.00 0.00 0.00 0.01 0.00 0.00 0.01 0.01 0.01 0.01 0.01 0.01 0.01 0.01 0.02 0.01 0.01 0.01 0.01
0.00 0.00 0.00 0.00 0.00 0.00 0.00 0.00 0.00 0.00 0.00 0.00 0.00 0.00 0.00 0.00 0.00 0.00 0.00 0.00 0.00 0.00 0.00 0.00 0.00 0.00 0.00 0.00 0.01 0.00 0.00 0.01 0.01 0.01 0.01 0.01 0.01 0.02 0.02 0.01 0.01 0.02 0.02 0.01
0.00 0.00 0.00 0.00 0.00 0.00 0.00 0.00 0.00 0.00 0.00 0.00 0.00 0.00 0.00 0.00 0.00 0.00 0.00 0.00 0.00 0.00 0.00 0.00 0.00 0.01 0.01 0.01 0.01 0.01 0.01 0.01 0.01 0.01 0.01 0.01 0.01 0.02 0.02 0.02 0.02 0.02 0.02 0.02
0.00 0.00 0.00 0.00 0.00 0.00 0.00 0.00 0.00 0.00 0.00 0.00 0.00 0.00 0.00 0.00 0.00 0.00 0.00 0.00 0.00 0.00 0.00 0.00 0.01 0.01 0.01 0.01 0.01 0.01 0.01 0.01 0.01 0.01 0.01 0.01 0.02 0.02 0.02 0.02 0.02 0.03 0.02 0.02
0.00 0.00 0.00 0.00 0.00 0.00 0.00 0.00 0.00 0.00 0.00 0.00 0.00 0.00 0.00 0.00 0.00 0.01 0.01 0.00 0.00 0.00 0.00 0.00 0.01 0.01 0.01 0.01 0.02 0.02 0.02 0.01 0.01 0.01 0.01 0.01 0.01 0.02 0.02 0.02 0.02 0.03 0.02 0.02
0.00 0.00 0.00 0.00 0.00 0.00 0.00 0.00 0.00 0.00 0.00 0.00 0.00 0.00 0.00 0.00 0.00 0.01 0.01 0.00 0.00 0.00 0.00 0.00 0.01 0.01 0.01 0.01 0.02 0.03 0.03 0.02 0.02 0.02 0.01 0.01 0.01 0.01 0.01 0.01 0.02 0.02 0.02 0.02
0.00 0.00 0.00 0.01 0.00 0.00 0.00 0.00 0.00 0.00 0.00 0.00 0.00 0.00 0.00 0.00 0.00 0.00 0.01 0.00 0.00 0.00 0.00 0.00 0.00 0.01 0.01 0.02 0.02 0.03 0.03 0.03 0.03 0.03 0.02 0.02 0.02 0.01 0.01 0.01 0.01 0.01 0.01 0.01
0.01 0.01 0.01 0.01 0.00 0.00 0.01 0.01 0.01 0.00 0.00 0.00 0.00 0.00 0.00 0.00 0.00 0.01 0.01 0.01 0.00 0.00 0.00 0.00 0.00 0.01 0.01 0.02 0.02 0.02 0.02 0.03 0.03 0.03 0.03 0.03 0.02 0.02 0.01 0.01 0.01 0.01 0.01 0.01
0.01 0.01 0.01 0.01 0.01 0.01 0.01 0.01 0.01 0.01 0.01 0.00 0.00 0.00 0.01 0.01 0.01 0.01 0.01 0.01 0.00 0.00 0.00 0.00 0.00 0.01 0.01 0.01 0.01 0.02 0.02 0.02 0.03 0.03 0.03 0.03 0.02 0.02 0.02 0.02 0.02 0.01 0.01 0.01
MSLP
1012.15 1012.11 1012.05 1011.98 1011.90 1011.80 1011.67 1011.49 1011.26 1011.00 1010.74 1010.49 1010.31 1010.21 1010.22 1010.34 1010.57 1010.86 1011.19 1011.52 1011.81 1012.03 1012.18 1012.26 1012.29 1012.30 1012.32 1012.38 1012.49 1012.65 1012.87 1013.13 1013.39 1013.64 1013.85 1014.01 1014.11 1014.14 1014.11 1014.03 1013.92 1013.79 1013.65 1013.53
1012.60 1012.53 1012.41 1012.24 1012.03 1011.79 1011.52 1011.24 1010.95 1010.69 1010.47 1010.32 1010.26 1010.30 1010.45 1010.69 1011.00 1011.34 1011.67 1011.96 1012.17 1012.30 1012.34 1012.32 1012.25 1012.18 1012.13 1012.14 1012.22 1012.37 1012.59 1012.86 1013.15 1013.43 1013.68 1013.88 1014.01 1014.08 1014.08 1014.02 1013.93 1013.80 1013.66 1013.52
1012.95 1012.89 1012.72 1012.47 1012.16 1011.80 1011.43 1011.07 1010.74 1010.48 1010.31 1010.24 1010.28 1010.45 1010.71 1011.05 1011.42 1011.79 1012.11 1012.35 1012.49 1012.52 1012.46 1012.33 1012.16 1012.01 1011.90 1011.86 1011.91 1012.05 1012.27 1012.55 1012.86 1013.16 1013.45 1013.68 1013.85 1013.96 1014.01 1013.99 1013.93 1013.83 1013.71 1013.58
1013.12 1013.06 1012.88 1012.58 1012.21 1011.78 1011.34 1010.93 1010.59 1010.33 1010.20 1010.20 1010.34 1010.60 1010.96 1011.36 1011.78 1012.15 1012.45 1012.64 1012.71 1012.65 1012.50 1012.29 1012.05 1011.83 1011.67 1011.60 1011.63 1011.76 1011.98 1012.26 1012.58 1012.91 1013.21 1013.47 1013.68 1013.83 1013.91 1013.95 1013.93 1013.87 1013.78 1013.66
1013.04 1012.99 1012.81 1012.50 1012.10 1011.65 1011.19 1010.77 1010.43 1010.20 1010.12 1010.18 1010.39 1010.72 1011.13 1011.58 1012.01 1012.39 1012.66 1012.80 1012.81 1012.69 1012.48 1012.22 1011.94 1011.69 1011.51 1011.44 1011.46 1011.59 1011.81 1012.09 1012.41 1012.73 1013.04 1013.31 1013.54 1013.72 1013.84 1013.91 1013.94 1013.92 1013.87 1013.77
1012.70 1012.66 1012.49 1012.20 1011.82 1011.39 1010.95 1010.55 1010.25 1010.07 1010.03 1010.15 1010.41 1010.78 1011.23 1011.69 1012.12 1012.48 1012.72 1012.83 1012.80 1012.65 1012.42 1012.15 1011.87 1011.64 1011.48 1011.42 1011.46 1011.60 1011.82 1012.10 1012.40 1012.71 1013.01 1013.27 1013.49 1013.68 1013.82 1013.92 1013.99 1014.01 1013.98 1013.91
1012.13 1012.11 1011.97 1011.72 1011.38 1011.00 1010.63 1010.30 1010.05 1009.93 1009.95 1010.11 1010.40 1010.80 1011.24 1011.70 1012.11 1012.44 1012.65 1012.74 1012.70 1012.56 1012.35 1012.10 1011.87 1011.69 1011.58 1011.57 1011.65 1011.81 1012.04 1012.31 1012.59 1012.87 1013.14 1013.37 1013.58 1013.75 1013.90 1014.01 1014.10 1014.15 1014.15 1014.10
1011.42 1011.40 1011.30 1011.11 1010.85 1010.56 1010.28 1010.03 1009.87 1009.82 1009.89 1010.08 1010.39 1010.78 1011.21 1011.63 1012.01 1012.30 1012.50 1012.57 1012.54 1012.43 1012.27 1012.09 1011.94 1011.84 1011.81 1011.87 1012.00 1012.20 1012.43 1012.69 1012.95 1013.20 1013.42 1013.62 1013.79 1013.94 1014.08 1014.19 1014.29 1014.36 1014.38 1014.35
1010.64 1010.64 1010.58 1010.47 1010.31 1010.13 1009.95 1009.82 1009.75 1009.76 1009.88 1010.10 1010.40 1010.76 1011.15 1011.53 1011.86 1012.11 1012.28 1012.35 1012.34 1012.28 1012.19 1012.10 1012.05 1012.05 1012.12 1012.26 1012.45 1012.69 1012.94 1013.19 1013.42 1013.63 1013.81 1013.96 1014.10 1014.22 1014.34 1014.46 1014.56 1014.64 1014.67 1014.66
1009.88 1009.91 1009.91 1009.88 1009.83 1009.77 1009.72 1009.69 1009.71 1009.79 1009.95 1010.17 1010.46 1010.78 1011.11 1011.42 1011.68 1011.89 1012.03 1012.11 1012.13 1012.12 1012.11 1012.12 1012.17 1012.28 1012.45 1012.67 1012.93 1013.20 1013.47 1013.71 1013.92 1014.10 1014.24 1014.35 1014.45 1014.55 1014.66 1014.77 1014.87 1014.96 1015.01 1015.01
1009.21 1009.27 1009.34 1009.41 1009.47 1009.54 1009.60 1009.68 1009.78 1009.92 1010.10 1010.32 1010.56 1010.83 1011.08 1011.32 1011.52 1011.68 1011.78 1011.85 1011.90 1011.95 1012.01 1012.12 1012.27 1012.48 1012.73 1013.03 1013.34 1013.64 1013.92 1014.16 1014.35 1014.50 1014.61 1014.70 1014.78 1014.86 1014.96 1015.07 1015.18 1015.28 1015.35 1015.36
1008.65 1008.76 1008.90 1009.07 1009.24 1009.42 1009.59 1009.76 1009.94 1010.12 1010.31 1010.51 1010.72 1010.91 1011.10 1011.25 1011.38 1011.48 1011.56 1011.62 1011.69 1011.78 1011.90 1012.08 1012.32 1012.60 1012.93 1013.27 1013.62 1013.95 1014.23 1014.46 1014.64 1014.77 1014.86 1014.93 1015.00 1015.08 1015.18 1015.30 1015.42 1015.54 1015.62 1015.64
1008.17 1008.34 1008.56 1008.82 1009.10 1009.38 1009.65 1009.91 1010.14 1010.36 1010.55 1010.73 1010.88 1011.02 1011.13 1011.21 1011.27 1011.32 1011.37 1011.42 1011.50 1011.62 1011.79 1012.02 1012.31 1012.65 1013.02 1013.40 1013.76 1014.09 1014.37 1014.59 1014.75 1014.86 1014.94 1015.00 1015.07 1015.16 1015.27 1015.40 1015.55 1015.68 1015.78 1015.82
1007.74 1007.97 1008.27 1008.63 1009.00 1009.37 1009.72 1010.04 1010.33 1010.56 1010.76 1010.92 1011.03 1011.11 1011.16 1011.19 1011.20 1011.21 1011.23 1011.27 1011.36 1011.50 1011.70 1011.96 1012.28 1012.64 1013.03 1013.41 1013.77 1014.09 1014.34 1014.54 1014.68 1014.78 1014.84 1014.90 1014.97 1015.07 1015.19 1015.35 1015.51 1015.67 1015.79 1015.86
1007.31 1007.60 1007.98 1008.42 1008.87 1009.32 1009.74 1010.12 1010.44 1010.70 1010.90 1011.04 1011.14 1011.18 1011.20 1011.18 1011.16 1011.15 1011.15 1011.19 1011.28 1011.43 1011.65 1011.92 1012.25 1012.61 1012.98 1013.34 1013.68 1013.96 1014.18 1014.35 1014.46 1014.53 1014.58 1014.64 1014.71 1014.81 1014.95 1015.12 1015.30 1015.48 1015.63 1015.73
1006.85 1007.21 1007.66 1008.16 1008.68 1009.19 1009.67 1010.09 1010.44 1010.73 1010.94 1011.09 1011.17 1011.21 1011.21 1011.19 1011.16 1011.14 1011.14 1011.19 1011.28 1011.44 1011.65 1011.92 1012.23 1012.57 1012.91 1013.24 1013.52 1013.76 1013.93 1014.05 1014.12 1014.16 1014.19 1014.23 1014.30 1014.40 1014.55 1014.74 1014.94 1015.14 1015.32 1015.45
1006.38 1006.79 1007.29 1007.84 1008.42 1008.97 1009.49 1009.95 1010.33 1010.64 1010.88 1011.04 1011.14 1011.19 1011.20 1011.19 1011.18 1011.17 1011.19 1011.25 1011.35 1011.51 1011.72 1011.97 1012.25 1012.55 1012.84 1013.11 1013.34 1013.51 1013.62 1013.69 1013.71 1013.71 1013.71 1013.73 1013.78 1013.88 1014.03 1014.23 1014.45 1014.68 1014.89 1015.05
1005.93 1006.39 1006.92 1007.51 1008.11 1008.70 1009.24 1009.72 1010.13 1010.47 1010.73 1010.92 1011.05 1011.13 1011.17 1011.20 1011.21 1011.24 1011.28 1011.36 1011.47 1011.63 1011.82 1012.05 1012.29 1012.54 1012.77 1012.97 1013.13 1013.23 1013.29 1013.29 1013.26 1013.22 1013.18 1013.17 1013.21 1013.30 1013.44 1013.64 1013.88 1014.12 1014.37 1014.58
1005.59 1006.06 1006.61 1007.21 1007.82 1008.41 1008.96 1009.45 1009.87 1010.23 1010.52 1010.74 1010.91 1011.03 1011.12 1011.18 1011.24 1011.30 1011.38 1011.47 1011.60 1011.75 1011.92 1012.11 1012.31 1012.51 1012.68 1012.81 1012.90 1012.94 1012.93 1012.87 1012.79 1012.71 1012.64 1012.60 1012.61 1012.69 1012.83 1013.03 1013.27 1013.54 1013.81 1014.06
1005.41 1005.89 1006.44 1007.02 1007.61 1008.18 1008.71 1009.19 1009.61 1009.98 1010.28 1010.53 1010.73 1010.90 1011.03 1011.14 1011.24 1011.34 1011.44 1011.55 1011.68 1011.82 1011.97 1012.13 1012.28 1012.42 1012.53 1012.60 1012.63 1012.61 1012.54 1012.45 1012.33 1012.21 1012.11 1012.05 1012.04 1012.10 1012.23 1012.43 1012.67 1012.96 1013.25 1013.54
1005.46 1005.92 1006.44 1006.98 1007.53 1008.05 1008.54 1008.98 1009.38 1009.74 1010.04 1010.31 1010.54 1010.73 1010.90 1011.06 1011.19 1011.32 1011.44 1011.56 1011.68 1011.80 1011.92 1012.04 1012.15 1012.24 1012.29 1012.32 1012.30 1012.24 1012.14 1012.01 1011.87 1011.73 1011.61 1011.54 1011.52 1011.57 1011.69 1011.88 1012.12 1012.40 1012.71 1013.01
1005.74 1006.17 1006.63 1007.11 1007.58 1008.03 1008.46 1008.85 1009.20 1009.52 1009.82 1010.08 1010.32 1010.54 1010.73 1010.91 1011.07 1011.21 1011.34 1011.46 1011.56 1011.66 1011.76 1011.84 1011.90 1011.95 1011.97 1011.95 1011.90 1011.82 1011.71 1011.57 1011.43 1011.29 1011.17 1011.09 1011.07 1011.11 1011.21 1011.38 1011.61 1011.88 1012.18 1012.49
1006.22 1006.59 1006.98 1007.37 1007.75 1008.11 1008.45 1008.76 1009.06 1009.33 1009.60 1009.84 1010.08 1010.30 1010.51 1010.69 1010.86 1011.01 1011.13 1011.24 1011.33 1011.41 1011.47 1011.51 1011.54 1011.56 1011.55 1011.51 1011.45 1011.37 1011.26 1011.14 1011.01 1010.88 1010.78 1010.71 1010.68 1010.71 1010.80 1010.94 1011.14 1011.38 1011.65 1011.94
1006.81 1007.11 1007.41 1007.70 1007.98 1008.23 1008.48 1008.71 1008.93 1009.15 1009.37 1009.59 1009.81 1010.02 1010.22 1010.41 1010.58 1010.72 1010.84 1010.93 1011.00 1011.04 1011.08 1011.09 1011.10 1011.09 1011.06 1011.02 1010.97 1010.90 1010.81 1010.72 1010.61 1010.52 1010.43 1010.37 1010.35 1010.37 1010.43 1010.54 1010.69 1010.89 1011.11 1011.35
1007.41 1007.63 1007.83 1008.02 1008.19 1008.34 1008.49 1008.63 1008.78 1008.94 1009.11 1009.30 1009.50 1009.70 1009.89 1010.07 1010.23 1010.36 1010.46 1010.54 1010.58 1010.61 1010.61 1010.61 1010.59 1010.57 1010.54 1010.51 1010.47 1010.43 1010.37 1010.31 1010.24 1010.18 1010.12 1010.07 1010.04 1010.04 1010.07 1010.14 1010.24 1010.37 1010.53 1010.72
1007.90 1008.04 1008.15 1008.24 1008.31 1008.37 1008.43 1008.49 1008.58 1008.69 1008.82 1008.98 1009.15 1009.33 1009.51 1009.68 1009.83 1009.95 1010.04 1010.10 1010.13 1010.13 1010.12 1010.10 1010.07 1010.05 1010.03 1010.01 1009.99 1009.97 1009.95 1009.92 1009.89 1009.85 1009.81 1009.77 1009.73 1009.71 1009.70 1009.71 1009.75 1009.81 1009.91 1010.03
1008.21 1008.27 1008.30 1008.31 1008.30 1008.28 1008.27 1008.27 1008.31 1008.37 1008.48 1008.61 1008.77 1008.94 1009.11 1009.27 1009.41 1009.52 1009.60 1009.64 1009.66 1009.65 1009.63 1009.60 1009.57 1009.55 1009.53 1009.53 1009.53 1009.54 1009.54 1009.54 1009.54 1009.52 1009.48 1009.44 1009.39 1009.33 1009.28 1009.24 1009.22 1009.22 1009.25 1009.32
Thickness
5675 5674 5672 5672 5670 5667 5666 5670 5668 5675 5676 5680 5680 5677 5674 5672 5669 5666 5663 5660 5658 5654 5652 5649 5645 5642 5639 5635 5631 5628 5624 5622 5619 5616 5613 5610 5609 5607 5605 5605 5604 5603 5603 5604
5665 5667 5665 5663 5667 5666 5664 5666 5666 5667 5669 5678 5676 5672 5669 5666 5662 5659 5657 5655 5652 5650 5648 5645 5642 5638 5635 5631 5627 5623 5619 5616 5613 5610 5607 5605 5603 5601 5600 5599 5598 5597 5596 5596
5659 5659 5657 5658 5668 5665 5663 5665 5663 5661 5667 5669 5664 5661 5659 5658 5656 5654 5651 5649 5646 5645 5643 5641 5638 5634 5630 5627 5622 5619 5615 5611 5608 5605 5602 5599 5597 5595 5593 5592 5591 5590 5589 5588
5651 5648 5642 5667 5669 5666 5661 5660 5662 5662 5663 5660 5657 5655 5653 5652 5649 5646 5644 5642 5640 5638 5636 5634 5632 5628 5625 5621 5617 5614 5610 5607 5603 5599 5596 5593 5591 5589 5588 5587 5585 5583 5582 5581
5645 5643 5651 5660 5660 5658 5654 5656 5661 5657 5655 5653 5650 5648 5648 5646 5643 5640 5638 5636 5634 5632 5630 5628 5625 5622 5618 5614 5611 5608 5605 5601 5598 5594 5591 5588 5586 5584 5582 5580 5579 5577 5575 5574
5639 5634 5640 5655 5657 5656 5651 5648 5655 5652 5648 5646 5642 5640 5643 5640 5636 5633 5631 5629 5627 5625 5623 5620 5618 5614 5611 5608 5605 5602 5599 5596 5592 5589 5586 5583 5581 5578 5576 5574 5572 5570 5568 5568
5634 5634 5645 5653 5649 5645 5636 5645 5647 5645 5643 5639 5637 5638 5636 5632 5629 5626 5623 5621 5618 5617 5615 5612 5610 5607 5604 5601 5599 5596 5592 5589 5585 5582 5580 5577 5574 5571 5568 5566 5564 5563 5562 5560
5632 5628 5635 5643 5640 5638 5641 5643 5640 5637 5635 5632 5630 5627 5625 5623 5620 5617 5615 5612 5610 5608 5606 5603 5601 5599 5597 5595 5592 5588 5584 5581 5578 5575 5572 5569 5566 5563 5561 5559 5557 5555 5555 5553
5635 5636 5640 5637 5636 5635 5634 5633 5632 5629 5627 5624 5621 5619 5616 5614 5612 5609 5607 5605 5602 5600 5598 5595 5593 5591 5589 5587 5583 5580 5577 5574 5571 5568 5565 5562 5559 5556 5554 5551 5550 5549 5547 5546
5626 5631 5631 5629 5628 5626 5625 5624 5623 5621 5619 5616 5614 5612 5609 5607 5605 5602 5600 5597 5595 5592 5590 5588 5585 5582 5580 5578 5575 5572 5569 5567 5564 5560 5557 5554 5551 5549 5547 5545 5543 5541 5540 5538
5621 5625 5623 5621 5620 5619 5616 5615 5613 5611 5610 5608 5606 5604 5602 5599 5597 5595 5592 5590 5587 5585 5582 5580 5577 5574 5572 5569 5566 5564 5562 5559 5556 5552 5549 5546 5543 5541 5539 5537 5535 5534 5532 5530
5617 5622 5618 5617 5615 5611 5607 5605 5604 5602 5601 5599 5598 5596 5594 5592 5590 5587 5585 5582 5579 5577 5575 5572 5569 5566 5564 5561 5558 5556 5554 5551 5547 5544 5541 5538 5535 5531 5527 5526 5523 5522 5520 5519
5612 5611 5609 5608 5605 5602 5600 5597 5595 5594 5592 5590 5589 5587 5585 5584 5582 5580 5577 5575 5572 5569 5567 5564 5561 5559 5556 5553 5550 5549 5546 5543 5540 5536 5534 5531 5528 5525 5522 5517 5514 5512 5510 5508
5599 5597 5596 5596 5593 5591 5589 5587 5586 5584 5583 5582 5581 5579 5577 5575 5574 5572 5570 5567 5564 5561 5559 5556 5554 5551 5548 5545 5542 5541 5538 5534 5532 5529 5526 5523 5520 5518 5516 5513 5510 5507 5502 5499
5590 5590 5589 5587 5584 5581 5580 5578 5577 5576 5575 5573 5572 5570 5568 5567 5566 5564 5562 5559 5556 5554 5551 5549 5546 5543 5540 5538 5536 5533 5531 5527 5524 5521 5517 5514 5512 5509 5507 5505 5503 5501 5497 5493
5581 5579 5577 5576 5574 5572 5571 5570 5569 5568 5566 5565 5563 5562 5560 5559 5557 5556 5554 5551 5549 5547 5544 5541 5539 5536 5533 5531 5528 5526 5523 5518 5515 5512 5509 5507 5504 5502 5499 5497 5496 5493 5490 5487
5571 5570 5568 5567 5566 5564 5563 5562 5561 5560 5559 5557 5555 5553 5552 5550 5549 5547 5546 5543 5541 5539 5537 5534 5531 5528 5525 5523 5521 5518 5515 5511 5507 5504 5502 5499 5497 5494 5491 5489 5488 5486 5484 5480
5566 5565 5564 5562 5560 5557 5555 5554 5553 5552 5550 5549 5546 5545 5544 5543 5541 5540 5538 5535 5532 5531 5529 5526 5524 5521 5518 5516 5513 5511 5509 5506 5502 5499 5496 5492 5489 5486 5484 5482 5481 5479 5476 5473
5557 5557 5556 5554 5552 5550 5549 5547 5545 5544 5542 5540 5539 5538 5536 5536 5534 5532 5530 5527 5526 5524 5522 5519 5515 5514 5512 5509 5505 5503 5502 5499 5496 5493 5489 5485 5482 5480 5477 5475 5474 5472 5470 5467
5549 5548 5547 5546 5544 5543 5541 5539 5537 5536 5535 5533 5532 5531 5530 5528 5527 5524 5522 5521 5519 5518 5515 5511 5509 5508 5505 5503 5498 5496 5494 5492 5489 5487 5483 5480 5477 5474 5471 5469 5467 5466 5464 5462
5541 5540 5539 5537 5536 5535 5533 5532 5530 5529 5528 5526 5525 5524 5523 5521 5519 5517 5515 5514 5512 5508 5506 5503 5502 5501 5498 5495 5491 5490 5488 5485 5483 5480 5478 5475 5472 5469 5466 5463 5461 5460 5458 5456
5534 5533 5531 5530 5529 5527 5526 5525 5523 5522 5521 5519 5518 5517 5515 5514 5512 5510 5508 5506 5503 5499 5498 5497 5495 5493 5491 5487 5485 5483 5481 5479 5476 5474 5472 5469 5466 5464 5461 5458 5456 5454 5453 5451
5527 5526 5525 5523 5522 5521 5518 5517 5516 5515 5514 5512 5511 5510 5508 5506 5504 5503 5501 5499 5495 5492 5491 5489 5487 5484 5482 5480 5479 5477 5475 5473 5470 5468 5466 5463 5461 5458 5456 5453 5451 5449 5447 5445
5518 5518 5517 5516 5514 5512 5511 5511 5508 5507 5506 5505 5503 5502 5500 5499 5497 5496 5493 5490 5487 5484 5483 5481 5478 5477 5474 5473 5472 5470 5468 5466 5464 5461 5459 5456 5454 5452 5449 5447 5445 5443 5441 5439
5510 5509 5509 5508 5507 5506 5504 5502 5500 5499 5497 5497 5496 5494 5493 5491 5490 5488 5486 5483 5479 5477 5476 5474 5471 5469 5468 5466 5464 5462 5461 5458 5456 5454 5452 5450 5448 5445 5443 5441 5439 5437 5435 5433
5502 5501 5500 5500 5499 5497 5496 5494 5493 5492 5491 5490 5488 5486 5484 5482 5481 5479 5477 5475 5473 5470 5468 5466 5464 5461 5460 5458 5455 5454 5452 5450 5449 5446 5444 5442 5441 5439 5437 5435 5433 5431 5429 5427
5493 5493 5492 5491 5490 5489 5488 5487 5486 5485 5484 5483 5481 5478 5476 5474 5472 5471 5469 5467 5465 5462 5460 5458 5455 5453 5452 5449 5447 5445 5443 5441 5439 5438 5436 5434 5433 5432 5430 5428 5426 5424 5422 5421